Location: Arbon
(43.0005°N, 0.7472°E)
Time: 16:19:37
(UTC+00:00)

Courier 1B Rocket - Pass Details

Date: 05 December 2020
Orbit: 920 x 1202 km, 28.2° (Epoch: 21 January)

Event Time Altitude Azimuth Distance (km) Brightness Sun altitude
Rises 07:07:26 0° 255° (WSW) 4,087 7.8 -1.7°
Reaches altitude 10° 07:11:13 10° 239° (WSW) 3,130 7.4 -1.1°
Maximum altitude 07:16:22 19° 198° (SSW) 2,493 7.3 -0.3°
Drops below altitude 10° 07:21:28 10° 156° (SSE) 3,087 8.7 0.5°
Sets 07:25:10 0° 139° (SE) 4,013 10.0 1.1°
